SCP
0 0 0 0 0 0 0 0 1 2 4 4 4 4 3 2 2 2 3 2 2 1 2 3 3 3 2 2 2 1 1 1 1 1 1 1 1 1 1 1 1 2 1
0 0 0 0 0 0 0 0 1 2 2 4 6 4 5 3 2 2 3 3 2 2 2 4 4 4 3 4 3 2 1 1 1 2 3 1 1 1 2 1 2 3 1
0 0 0 0 0 0 0 0 1 2 4 5 5 7 6 5 4 3 3 3 2 2 2 3 4 6 6 4 5 4 3 1 3 4 5 5 2 2 1 2 2 3 2
0 0 0 0 0 0 0 0 0 1 3 4 5 7 7 5 3 2 2 3 2 2 2 4 3 4 3 3 4 4 4 6 7 7 7 7 5 4 5 1 1 2 2
0 0 0 0 0 0 0 0 0 1 2 5 6 6 5 4 4 3 4 4 3 2 2 2 2 4 4 6 5 3 4 5 4 3 2 2 1 4 5 2 1 0 0
0 0 0 0 0 0 0 0 0 1 1 3 3 5 7 5 4 4 4 4 5 4 3 3 3 5 5 4 5 4 2 1 1 1 1 0 1 0 1 1 1 1 0
0 0 0 0 0 0 0 0 0 1 1 1 2 2 3 4 6 6 4 6 5 6 6 4 4 4 4 3 3 3 2 1 2 1 0 0 0 0 0 1 0 0 0
0 0 0 0 0 0 0 0 0 0 1 1 3 4 5 8 6 5 5 5 3 4 5 4 4 4 2 2 1 2 1 1 1 1 1 0 0 0 1 1 0 1 0
0 0 0 0 0 0 0 0 1 0 1 1 3 3 4 5 5 6 5 5 5 4 5 3 3 3 3 3 3 3 2 2 1 0 0 0 0 0 1 1 1 2 1
0 0 0 0 0 0 0 0 0 1 1 2 2 3 3 3 3 3 3 3 3 3 2 3 5 5 4 3 4 4 2 2 1 1 0 0 1 1 1 1 1 1 1
0 0 0 0 0 0 0 0 0 1 2 1 2 2 1 2 2 2 2 2 2 2 2 2 3 4 4 3 4 3 2 2 1 1 1 1 1 1 1 0 1 0 0
0 0 0 0 0 0 0 0 0 0 1 0 1 2 3 3 2 2 2 1 1 1 1 1 2 2 2 3 3 3 2 1 1 1 1 0 0 1 1 1 1 1 0
0 0 0 0 0 0 0 0 0 0 0 0 2 1 2 3 3 2 2 1 1 1 1 1 1 1 1 1 0 0 0 0 0 0 0 0 0 0 0 0 0 0 0
0 0 0 0 0 0 0 0 0 0 0 0 0 1 2 2 3 2 2 1 1 1 1 0 0 0 0 0 0 0 0 0 0 0 0 0 0 0 0 0 0 0 0
0 0 0 0 0 0 0 0 0 0 0 0 0 0 0 1 2 2 1 1 1 0 0 0 0 0 0 0 0 0 0 0 0 0 0 0 0 0 0 0 0 0 0
0 0 0 0 0 0 0 0 0 0 0 0 0 0 0 0 0 1 1 2 1 0 0 0 0 0 0 0 0 0 0 0 0 0 0 0 0 0 0 0 0 0 0
0 0 0 0 0 0 0 0 0 0 0 0 0 0 -0 0 0 0 0 1 2 2 1 0 0 0 0 0 0 0 0 0 0 0 0 0 0 0 0 0 0 0 0
0 0 0 -0 0 0 0 0 0 0 0 0 0 0 0 0 0 0 0 1 1 3 3 1 1 1 0 0 0 0 0 0 0 0 0 0 0 0 0 0 0 0 0
-0 -0 -0 -0 0 0 0 0 0 0 0 0 0 0 0 0 0 0 0 0 1 2 2 2 1 1 1 0 0 0 0 0 0 0 0 0 0 0 0 0 0 0 0
0 0 0 0 0 0 0 0 0 0 0 0 0 0 0 0 0 0 0 0 1 1 1 1 1 1 1 0 0 0 0 0 0 -0 -0 -0 0 0 0 0 0 0 0
0 0 0 0 0 0 0 0 0 0 0 0 0 0 0 0 0 0 1 1 0 1 1 1 2 1 1 0 0 0 0 0 0 -0 -0 -0 -0 0 0 0 0 0 0
0 0 0 0 0 0 0 0 0 0 0 0 0 0 0 0 0 1 0 0 1 1 2 2 1 0 1 0 0 0 0 0 0 0 0 0 0 0 0 0 0 0 0
0 0 0 0 0 0 0 0 0 0 0 0 0 0 0 0 0 0 0 0 1 0 0 0 0 0 0 0 0 0 0 0 0 0 0 0 0 0 0 -0 0 0 0
0 0 0 0 0 0 0 0 0 0 0 0 0 0 0 0 0 0 0 0 0 0 0 0 0 0 0 0 0 0 0 0 0 0 0 0 0 0 0 0 0 0 0
0 0 0 0 0 0 0 0 0 0 0 -0 -0 0 0 0 0 0 0 0 0 0 0 0 0 0 0 0 0 0 0 0 0 -0 -0 0 0 0 0 0 0 0 0
0 0 0 0 0 0 0 0 0 0 0 -0 -0 -0 0 0 0 0 0 0 0 0 0 0 0 0 0 0 0 0 0 0 0 0 0 0 0 0 0 0 0 0 0
Wind_Speed_500mb
39 37 34 34 44 52 56 65 68 71 71 64 61 61 65 59 57 58 59 56 55 67 73 66 67 66 58 55 54 53 50 37 29 23 27 25 28 28 24 22 15 10 6
48 46 46 43 38 50 58 65 76 73 74 75 78 63 60 55 53 51 56 62 62 61 66 74 59 59 56 63 59 59 39 34 29 26 24 19 19 19 22 27 18 13 20
56 52 49 47 42 40 44 55 71 83 83 82 66 59 48 49 54 56 59 67 68 65 63 73 68 54 57 44 57 56 58 38 30 31 22 13 8 15 16 16 23 20 22
54 57 55 49 50 46 40 41 51 71 72 67 67 70 68 64 64 56 53 55 60 72 78 74 77 73 69 57 37 36 41 46 35 32 34 27 18 7 18 35 26 32 38
39 37 38 39 41 42 44 43 45 50 66 67 74 72 65 59 46 47 49 51 53 57 62 70 67 64 59 54 44 35 37 48 49 48 35 26 26 19 21 46 57 43 43
31 29 30 34 39 41 42 43 44 46 51 63 71 74 73 66 52 51 49 45 44 50 60 64 69 69 59 57 59 55 48 49 52 61 41 55 89 88 56 67 82 80 77
25 26 30 37 39 43 44 40 41 46 45 56 65 71 69 61 57 52 51 48 44 44 48 58 60 59 60 59 63 69 62 75 67 62 66 64 103 86 83 90 85 79 70
31 34 34 38 42 45 49 42 36 44 44 50 63 66 65 60 57 50 49 51 51 48 46 49 49 51 52 57 61 61 55 57 70 68 74 74 93 81 78 75 79 58 66
32 35 38 40 42 43 47 46 35 36 41 48 51 56 57 58 54 55 54 48 48 45 44 44 45 47 48 51 56 66 71 66 70 66 68 82 70 59 60 58 61 54 50
35 36 37 38 38 38 39 46 37 29 33 40 45 48 50 51 48 50 50 44 42 47 42 47 46 44 44 46 55 59 50 57 63 62 71 64 64 59 55 48 45 41 40
38 37 39 38 38 39 39 35 34 30 17 27 34 37 39 43 45 48 50 52 51 49 47 38 36 35 36 39 44 51 51 51 50 47 46 46 42 42 34 36 38 39 34
37 38 40 42 40 40 39 37 29 23 20 17 24 24 28 32 34 40 39 36 39 38 34 34 35 35 33 33 31 31 30 27 26 23 22 22 23 26 30 31 33 33 31
39 43 44 43 44 42 39 34 32 26 19 19 19 24 28 32 35 37 38 37 37 37 37 37 38 36 35 33 30 28 28 26 23 21 20 21 22 23 25 29 31 33 32
47 48 47 47 46 46 43 41 37 34 28 27 18 16 26 35 43 39 38 39 38 40 44 43 42 40 38 35 33 31 28 25 21 19 20 23 26 29 29 29 29 31 34
54 58 58 55 54 54 52 49 46 41 38 35 28 23 16 30 33 42 44 43 43 44 46 46 44 41 41 40 37 31 24 17 13 16 21 25 32 38 41 36 35 34 35
66 63 62 62 62 62 62 60 57 54 48 47 59 59 35 26 21 36 46 56 55 51 49 51 49 49 46 45 43 30 21 16 19 21 23 27 33 36 41 41 41 44 46
70 71 69 71 74 78 76 73 69 65 62 59 55 59 52 43 36 26 38 51 60 59 57 57 56 55 50 52 49 41 28 24 25 26 27 25 23 29 25 31 37 35 38
76 81 87 94 86 85 87 75 81 77 71 72 67 58 66 75 66 46 38 47 54 72 74 66 60 60 54 58 53 47 38 30 32 32 31 32 28 28 30 29 30 33 35
88 90 95 94 100 86 88 92 81 74 80 82 79 73 62 59 75 95 82 59 60 69 71 72 67 64 60 67 60 51 32 27 28 29 33 33 32 31 32 31 31 35 38
92 98 96 104 91 100 80 82 89 83 78 77 88 78 75 70 72 71 76 99 82 70 68 70 69 66 64 68 64 57 38 32 28 27 33 37 38 36 36 37 38 39 39
98 100 94 100 97 91 87 80 79 96 93 85 82 98 91 78 79 78 74 72 68 75 66 72 68 65 67 60 66 62 46 38 33 29 30 30 37 40 41 43 41 45 47
96 93 91 92 91 81 79 83 83 83 80 81 89 95 77 88 83 81 80 77 71 73 70 69 67 67 61 65 64 64 61 48 43 35 35 34 42 51 46 45 44 43 44
95 94 91 96 89 79 73 78 83 73 67 72 80 81 92 96 85 82 93 85 80 78 77 72 72 71 63 60 69 66 67 64 59 47 43 51 53 53 46 46 43 39 43
94 96 95 88 82 78 69 66 72 73 75 72 71 73 73 83 91 82 83 89 87 83 81 81 78 74 67 60 54 66 70 69 67 64 59 57 57 51 48 48 42 36 29
97 88 80 81 80 67 68 66 49 48 48 54 66 74 64 69 74 95 70 83 80 84 85 85 80 76 74 70 62 54 45 43 46 41 40 39 39 38 40 37 41 36 38
90 84 77 71 62 64 50 47 40 33 34 37 53 61 63 60 65 69 83 87 74 83 86 78 77 73 68 66 68 68 63 55 51 41 40 42 43 42 41 37 38 35 48
Wind_Direction_500mb
273 275 280 286 286 276 272 265 260 251 242 229 222 218 220 218 219 217 218 218 223 226 227 226 234 241 237 235 240 242 245 239 241 247 256 261 262 261 255 238 220 188 195
277 275 277 273 280 280 270 267 256 250 246 240 235 224 221 220 221 218 221 228 230 229 231 231 217 238 233 236 237 246 236 237 230 226 242 251 263 235 216 217 246 239 235
278 279 282 274 272 280 286 274 258 245 243 237 229 223 219 219 224 221 223 229 230 229 232 234 226 225 231 229 235 236 237 228 221 220 224 204 240 269 249 219 224 232 240
284 280 283 279 280 280 281 278 261 251 235 230 222 218 215 219 228 226 226 227 235 228 231 233 234 233 239 230 229 230 222 208 211 210 224 214 206 176 319 310 269 264 263
299 302 297 295 291 289 287 282 274 253 239 227 221 223 221 225 223 226 224 227 235 234 228 233 236 227 231 239 230 222 227 225 210 208 213 222 250 255 286 284 288 278 284
313 313 317 316 311 306 295 283 273 263 238 225 225 218 221 222 218 222 215 213 214 227 225 226 230 237 239 234 235 237 230 229 227 235 226 278 285 272 275 288 277 276 277
328 333 341 336 336 332 324 298 272 260 241 226 224 223 222 222 217 214 216 211 212 215 226 225 227 232 237 237 241 246 255 255 242 237 249 271 272 257 254 262 267 273 278
325 315 317 326 329 334 336 326 285 261 247 231 224 218 218 215 217 221 216 213 216 221 220 222 220 226 232 240 247 247 250 259 250 254 250 242 261 248 251 254 266 268 277
328 333 328 319 320 327 336 336 314 271 250 238 229 221 213 210 214 213 209 208 208 210 209 220 225 229 232 234 237 239 242 241 240 248 249 239 246 246 255 252 258 261 274
323 321 326 334 332 329 331 342 336 300 254 239 230 223 212 204 199 204 208 201 205 205 213 222 224 225 229 232 235 242 241 241 244 244 232 240 248 255 250 250 256 260 267
318 320 323 326 325 330 334 331 346 330 278 238 227 217 207 202 201 206 209 214 216 219 221 219 215 216 218 221 224 228 228 231 232 234 236 239 239 234 244 252 257 263 265
314 315 317 320 325 324 328 333 330 343 324 251 219 210 202 197 198 199 196 200 205 207 201 202 203 202 203 204 202 198 207 205 206 208 212 223 233 241 245 252 259 262 264
309 312 312 312 313 318 319 320 328 325 328 312 254 241 218 202 197 208 194 195 199 194 196 198 197 191 189 184 184 186 189 192 199 208 221 232 241 249 253 254 262 270 270
304 306 307 308 308 308 307 306 306 305 303 290 307 261 238 231 215 212 214 203 199 198 196 196 198 193 192 192 192 190 189 192 203 220 236 246 249 250 252 257 261 264 267
306 309 306 305 302 301 298 293 291 290 287 279 272 278 272 240 232 227 220 213 205 201 197 196 199 195 196 196 193 191 189 203 240 270 280 274 266 257 246 250 259 262 265
300 299 300 299 299 298 295 289 283 280 277 274 261 261 264 254 248 231 223 213 209 205 201 204 203 195 194 200 202 198 206 227 261 279 292 283 278 268 261 247 261 270 269
298 301 301 298 298 294 290 283 280 274 270 263 258 248 247 247 246 248 231 221 214 209 206 206 200 196 198 208 211 218 223 239 258 282 301 297 281 270 259 271 284 280 276
304 302 299 298 293 289 284 273 278 269 266 260 255 255 256 247 250 243 238 229 221 214 210 206 206 202 205 210 213 225 233 243 261 280 296 302 280 260 258 271 274 271 272
297 296 296 293 293 288 287 284 272 266 264 259 250 245 243 242 248 246 239 243 230 220 217 213 210 207 209 216 221 228 227 240 255 269 286 299 280 264 266 275 282 287 288
297 298 293 296 285 292 286 280 274 266 255 262 256 245 237 237 231 225 228 232 231 226 222 217 213 211 208 217 221 230 226 238 254 271 287 296 299 268 258 269 282 287 295
303 302 299 293 292 291 290 276 262 265 267 257 251 252 239 241 233 229 223 217 217 214 215 210 207 210 211 217 224 231 227 232 249 264 277 284 282 272 260 259 276 280 294
308 307 304 300 301 298 290 285 279 278 271 264 250 243 237 233 236 229 223 218 214 209 208 208 209 215 213 217 226 230 239 235 242 254 268 274 266 260 260 261 275 279 284
311 312 309 310 310 306 297 284 285 285 279 261 252 245 238 232 225 224 217 214 213 212 211 210 210 214 217 219 224 230 239 248 254 258 268 280 273 261 259 268 269 276 285
316 317 315 312 310 311 309 305 302 292 275 268 257 248 236 230 226 219 216 210 214 213 212 212 213 216 216 217 220 227 233 243 252 260 271 279 272 260 252 257 270 265 250
321 321 318 318 319 330 330 323 306 298 282 261 249 241 233 224 223 222 209 214 215 213 212 214 214 214 217 220 219 219 225 232 247 253 258 254 258 251 247 257 257 259 220
328 329 331 330 336 339 341 334 331 330 320 298 240 219 219 214 212 213 223 216 217 218 215 212 216 218 221 221 224 221 218 223 230 235 244 245 242 240 242 249 252 250 219
Wind_Speed_850mb
39 37 34 34 44 52 56 65 68 71 71 64 61 61 65 59 57 58 59 56 55 67 73 66 67 66 58 55 54 53 50 37 29 23 27 25 28 28 24 22 15 10 6
48 46 46 43 38 50 58 65 76 73 74 75 78 63 60 55 53 51 56 62 62 61 66 74 59 59 56 63 59 59 39 34 29 26 24 19 19 19 22 27 18 13 20
56 52 49 47 42 40 44 55 71 83 83 82 66 59 48 49 54 56 59 67 68 65 63 73 68 54 57 44 57 56 58 38 30 31 22 13 8 15 16 16 23 20 22
54 57 55 49 50 46 40 41 51 71 72 67 67 70 68 64 64 56 53 55 60 72 78 74 77 73 69 57 37 36 41 46 35 32 34 27 18 7 18 35 26 32 38
39 37 38 39 41 42 44 43 45 50 66 67 74 72 65 59 46 47 49 51 53 57 62 70 67 64 59 54 44 35 37 48 49 48 35 26 26 19 21 46 57 43 43
31 29 30 34 39 41 42 43 44 46 51 63 71 74 73 66 52 51 49 45 44 50 60 64 69 69 59 57 59 55 48 49 52 61 41 55 89 88 56 67 82 80 77
25 26 30 37 39 43 44 40 41 46 45 56 65 71 69 61 57 52 51 48 44 44 48 58 60 59 60 59 63 69 62 75 67 62 66 64 103 86 83 90 85 79 70
31 34 34 38 42 45 49 42 36 44 44 50 63 66 65 60 57 50 49 51 51 48 46 49 49 51 52 57 61 61 55 57 70 68 74 74 93 81 78 75 79 58 66
32 35 38 40 42 43 47 46 35 36 41 48 51 56 57 58 54 55 54 48 48 45 44 44 45 47 48 51 56 66 71 66 70 66 68 82 70 59 60 58 61 54 50
35 36 37 38 38 38 39 46 37 29 33 40 45 48 50 51 48 50 50 44 42 47 42 47 46 44 44 46 55 59 50 57 63 62 71 64 64 59 55 48 45 41 40
38 37 39 38 38 39 39 35 34 30 17 27 34 37 39 43 45 48 50 52 51 49 47 38 36 35 36 39 44 51 51 51 50 47 46 46 42 42 34 36 38 39 34
37 38 40 42 40 40 39 37 29 23 20 17 24 24 28 32 34 40 39 36 39 38 34 34 35 35 33 33 31 31 30 27 26 23 22 22 23 26 30 31 33 33 31
39 43 44 43 44 42 39 34 32 26 19 19 19 24 28 32 35 37 38 37 37 37 37 37 38 36 35 33 30 28 28 26 23 21 20 21 22 23 25 29 31 33 32
47 48 47 47 46 46 43 41 37 34 28 27 18 16 26 35 43 39 38 39 38 40 44 43 42 40 38 35 33 31 28 25 21 19 20 23 26 29 29 29 29 31 34
54 58 58 55 54 54 52 49 46 41 38 35 28 23 16 30 33 42 44 43 43 44 46 46 44 41 41 40 37 31 24 17 13 16 21 25 32 38 41 36 35 34 35
66 63 62 62 62 62 62 60 57 54 48 47 59 59 35 26 21 36 46 56 55 51 49 51 49 49 46 45 43 30 21 16 19 21 23 27 33 36 41 41 41 44 46
70 71 69 71 74 78 76 73 69 65 62 59 55 59 52 43 36 26 38 51 60 59 57 57 56 55 50 52 49 41 28 24 25 26 27 25 23 29 25 31 37 35 38
76 81 87 94 86 85 87 75 81 77 71 72 67 58 66 75 66 46 38 47 54 72 74 66 60 60 54 58 53 47 38 30 32 32 31 32 28 28 30 29 30 33 35
88 90 95 94 100 86 88 92 81 74 80 82 79 73 62 59 75 95 82 59 60 69 71 72 67 64 60 67 60 51 32 27 28 29 33 33 32 31 32 31 31 35 38
92 98 96 104 91 100 80 82 89 83 78 77 88 78 75 70 72 71 76 99 82 70 68 70 69 66 64 68 64 57 38 32 28 27 33 37 38 36 36 37 38 39 39
98 100 94 100 97 91 87 80 79 96 93 85 82 98 91 78 79 78 74 72 68 75 66 72 68 65 67 60 66 62 46 38 33 29 30 30 37 40 41 43 41 45 47
96 93 91 92 91 81 79 83 83 83 80 81 89 95 77 88 83 81 80 77 71 73 70 69 67 67 61 65 64 64 61 48 43 35 35 34 42 51 46 45 44 43 44
95 94 91 96 89 79 73 78 83 73 67 72 80 81 92 96 85 82 93 85 80 78 77 72 72 71 63 60 69 66 67 64 59 47 43 51 53 53 46 46 43 39 43
94 96 95 88 82 78 69 66 72 73 75 72 71 73 73 83 91 82 83 89 87 83 81 81 78 74 67 60 54 66 70 69 67 64 59 57 57 51 48 48 42 36 29
97 88 80 81 80 67 68 66 49 48 48 54 66 74 64 69 74 95 70 83 80 84 85 85 80 76 74 70 62 54 45 43 46 41 40 39 39 38 40 37 41 36 38
90 84 77 71 62 64 50 47 40 33 34 37 53 61 63 60 65 69 83 87 74 83 86 78 77 73 68 66 68 68 63 55 51 41 40 42 43 42 41 37 38 35 48
Wind_Direction_850mb
273 275 280 286 286 276 272 265 260 251 242 229 222 218 220 218 219 217 218 218 223 226 227 226 234 241 237 235 240 242 245 239 241 247 256 261 262 261 255 238 220 188 195
277 275 277 273 280 280 270 267 256 250 246 240 235 224 221 220 221 218 221 228 230 229 231 231 217 238 233 236 237 246 236 237 230 226 242 251 263 235 216 217 246 239 235
278 279 282 274 272 280 286 274 258 245 243 237 229 223 219 219 224 221 223 229 230 229 232 234 226 225 231 229 235 236 237 228 221 220 224 204 240 269 249 219 224 232 240
284 280 283 279 280 280 281 278 261 251 235 230 222 218 215 219 228 226 226 227 235 228 231 233 234 233 239 230 229 230 222 208 211 210 224 214 206 176 319 310 269 264 263
299 302 297 295 291 289 287 282 274 253 239 227 221 223 221 225 223 226 224 227 235 234 228 233 236 227 231 239 230 222 227 225 210 208 213 222 250 255 286 284 288 278 284
313 313 317 316 311 306 295 283 273 263 238 225 225 218 221 222 218 222 215 213 214 227 225 226 230 237 239 234 235 237 230 229 227 235 226 278 285 272 275 288 277 276 277
328 333 341 336 336 332 324 298 272 260 241 226 224 223 222 222 217 214 216 211 212 215 226 225 227 232 237 237 241 246 255 255 242 237 249 271 272 257 254 262 267 273 278
325 315 317 326 329 334 336 326 285 261 247 231 224 218 218 215 217 221 216 213 216 221 220 222 220 226 232 240 247 247 250 259 250 254 250 242 261 248 251 254 266 268 277
328 333 328 319 320 327 336 336 314 271 250 238 229 221 213 210 214 213 209 208 208 210 209 220 225 229 232 234 237 239 242 241 240 248 249 239 246 246 255 252 258 261 274
323 321 326 334 332 329 331 342 336 300 254 239 230 223 212 204 199 204 208 201 205 205 213 222 224 225 229 232 235 242 241 241 244 244 232 240 248 255 250 250 256 260 267
318 320 323 326 325 330 334 331 346 330 278 238 227 217 207 202 201 206 209 214 216 219 221 219 215 216 218 221 224 228 228 231 232 234 236 239 239 234 244 252 257 263 265
314 315 317 320 325 324 328 333 330 343 324 251 219 210 202 197 198 199 196 200 205 207 201 202 203 202 203 204 202 198 207 205 206 208 212 223 233 241 245 252 259 262 264
309 312 312 312 313 318 319 320 328 325 328 312 254 241 218 202 197 208 194 195 199 194 196 198 197 191 189 184 184 186 189 192 199 208 221 232 241 249 253 254 262 270 270
304 306 307 308 308 308 307 306 306 305 303 290 307 261 238 231 215 212 214 203 199 198 196 196 198 193 192 192 192 190 189 192 203 220 236 246 249 250 252 257 261 264 267
306 309 306 305 302 301 298 293 291 290 287 279 272 278 272 240 232 227 220 213 205 201 197 196 199 195 196 196 193 191 189 203 240 270 280 274 266 257 246 250 259 262 265
300 299 300 299 299 298 295 289 283 280 277 274 261 261 264 254 248 231 223 213 209 205 201 204 203 195 194 200 202 198 206 227 261 279 292 283 278 268 261 247 261 270 269
298 301 301 298 298 294 290 283 280 274 270 263 258 248 247 247 246 248 231 221 214 209 206 206 200 196 198 208 211 218 223 239 258 282 301 297 281 270 259 271 284 280 276
304 302 299 298 293 289 284 273 278 269 266 260 255 255 256 247 250 243 238 229 221 214 210 206 206 202 205 210 213 225 233 243 261 280 296 302 280 260 258 271 274 271 272
297 296 296 293 293 288 287 284 272 266 264 259 250 245 243 242 248 246 239 243 230 220 217 213 210 207 209 216 221 228 227 240 255 269 286 299 280 264 266 275 282 287 288
297 298 293 296 285 292 286 280 274 266 255 262 256 245 237 237 231 225 228 232 231 226 222 217 213 211 208 217 221 230 226 238 254 271 287 296 299 268 258 269 282 287 295
303 302 299 293 292 291 290 276 262 265 267 257 251 252 239 241 233 229 223 217 217 214 215 210 207 210 211 217 224 231 227 232 249 264 277 284 282 272 260 259 276 280 294
308 307 304 300 301 298 290 285 279 278 271 264 250 243 237 233 236 229 223 218 214 209 208 208 209 215 213 217 226 230 239 235 242 254 268 274 266 260 260 261 275 279 284
311 312 309 310 310 306 297 284 285 285 279 261 252 245 238 232 225 224 217 214 213 212 211 210 210 214 217 219 224 230 239 248 254 258 268 280 273 261 259 268 269 276 285
316 317 315 312 310 311 309 305 302 292 275 268 257 248 236 230 226 219 216 210 214 213 212 212 213 216 216 217 220 227 233 243 252 260 271 279 272 260 252 257 270 265 250
321 321 318 318 319 330 330 323 306 298 282 261 249 241 233 224 223 222 209 214 215 213 212 214 214 214 217 220 219 219 225 232 247 253 258 254 258 251 247 257 257 259 220
328 329 331 330 336 339 341 334 331 330 320 298 240 219 219 214 212 213 223 216 217 218 215 212 216 218 221 221 224 221 218 223 230 235 244 245 242 240 242 249 252 250 219